map of LAW home
LAW - Airport
Location
City:  Lawton, Oklahoma, United States
Name:Lawton-Fort Sill Regional
ICAO:KLAW
IATA:LAW
FAA LID:LAW

Details
Type:Airport (Part 139 Class I)
Use:Public/Civil
Latitude:3434'04"N (34.567714)
Longitude:9825'00"W (-98.416636)
Datum:WGS 1984
Elevation:1110 ft (338 m)
Variation:4.16E (WMM2015 magnetic declination)
-0.11 annual change
Runways:1
Longest:8599 × 150 ft (2621 × 45.5 m), paved

Time
Time Zone:UTC-6 (DST-5)
Local Time:

Weather
METAR:KLAW 181853Z 15008KT 10SM CLR 14/06 A3001 RMK AO2 SLP163 T01390056
TAF:KLAW 181742Z 1818/1918 17008KT P6SM BKN150
FM190700 16006KT P6SM BKN012

Related Locations
Nearby:
Farthest:RRG: 10927 mi / 17586 km
Plaine Corail [Sir Gatan Duval Airport (Plaine Corail Airport)], Rodrigues Island, MU

Find:

   beyond  
but within

Other Information
Maps:
Delays:
NOTAMs:
Links:
Sources:

  
  • flag of United States
  • flag of Oklahoma
  

Airport Diagram

Airport diagram for LAW

Airport diagram PDF

Sectional Chart

Flight Planning
at skyvector.com

Satellite Image

Google Maps Satellite view

 

Copyright © 2004-2018 Karl L. Swartz. All rights reserved.
The Great Circle Mapper name and logo are trademarks of the Great Circle Mapper.
All other trademarks mentioned herein belong to their respective owners.
Please see credits for attibutions and further copyright information.

  Follow gcmap on Facebook Follow gcmap on Twitter Follow gcmap on Google+ GCmap on LinkedIn

hCard Microformat

Geo Microformat